DECAYED
Showing default

FLOCK 1C 1, 40027 (Decayed)

Orbit data source: Space-Track

FLOCK 1C 1, 40027 was a payload satellite owned by Planet Labs (US) in LEO that was launched on Thu, 19 Jun 2014 UTC via a DNEPR launch vehicle from the Orenburg, Russia (OREN). Payload-class satellites include a variety of spacecraft equipped with specific instruments for various scientific and technological missions. These include communications satellites like Starlink; space stations such as the ISS; scientific satellites like the Hubble; Earth observation satellites from companies like Planet Labs, Umbra, and HawkEye 360; GPS; miniature CubeSats for education and research; and military/defense satellites.

Not visible in the next 10 days
Identifier
40027, 2014-033T
Orbit
Decayed
Country
Flag of USUS
Related business
Manufacturer
Planet Labs
Mission
Decayed Commercial Imaging
Bus & Motor
CUBESAT 3U, Unknown motor
Mass
4.25 kg wet, 4.25 kg dry
Launch date (UTC)
2014-06-19 (11 years ago)
Launch vehicle
DNEPR
Launch site
Orenburg, Russia (OREN)
Object type
Payload
Rocket body
Debris
Shape & HBR
Box + 2 Pan, 1.0 m
Radar Cross Section
0.108 m², Small (<0.1 m²)

Expand to show TLE details & history
Last TLE update: 7 months ago

TLE from 7 months ago
0 FLOCK 1C 1
1 40027U 14033T   25077.02427326  .11317992  29198-5  29701-2 0  9999
2 40027  98.0370  94.2920 0009925 215.0883 144.9756 16.28423217585673
Epoch: 2025-03-18T00:34Z
TLE epoch observation values (Epoch: 2025-03-18T00:34:57.209Z)
Latitude
-0°
Longitude
-90.27906°
Altitude
205.344 km
Speed
7.78 km/s
True Right ascension
06h 17m 10s
True Declination
0° 00' 00"
Sunlit
Object was in daylight at epoch
Visualization orbit readout
Latitude
Unknown
Longitude
Unknown
Altitude
Unknown
Speed
Unknown
Apparent Right ascension
Unknown
Apparent Declination
Unknown
Sunlit
N/A
Visualization observer readout
Local Sidereal Time
02:16:30
Azimuth
Unknown
Elevation
Unknown
Doppler factor
Unknown
Orbital elements
Apogee altitude
200.155 km
Perigee altitude
187.111 km
Semi-major axis
6,571.77 km
Eccentricity
0.00099
Inclination
98.037°
RAAN
94.292°
Arg. of periapsis
215.0883°
True anomaly
145.04081°
Mean anomaly
144.9756°
Eccentric anomaly
145.00821°
Mean motion
4.07399 °/min
Orbital period
88.37 mins
BSTAR
0.0029701
Loading maneuver chart data...
Computing Atmospheric mass density...
Loading historical data...
Loading historical data...
Loading historical data...
Loading historical data...
Loading historical data...
Loading historical data...
Loading historical data...

Documentation

Showing up to 5 results
|